Temperature
21 21 21 21 21 21 21 22 22 21 21 21 21 21 20 20 20 20 20 20 20 20 19 19 19 19 19 19 19 19 19 19 19 18 18 18 18 18 19 19 18 18 18
22 22 21 21 21 21 21 21 22 21 21 21 21 21 21 20 20 20 20 20 20 19 19 19 20 20 20 20 20 19 19 19 19 19 18 18 18 18 19 19 18 18 18
23 22 21 21 21 21 21 21 21 21 21 21 21 21 21 21 20 20 20 20 20 20 20 20 20 20 20 20 20 20 20 20 20 20 19 19 18 18 18 18 18 18 18
23 22 22 21 21 21 21 21 21 21 21 21 21 21 21 21 21 21 20 20 20 20 20 20 20 20 20 21 21 21 20 20 20 20 20 19 19 19 18 18 18 18 18
23 23 22 22 21 21 21 21 21 21 21 21 21 21 21 21 21 21 21 21 21 21 21 21 21 21 21 21 21 21 20 20 20 20 20 20 19 19 19 19 18 18 18
24 23 22 22 21 21 21 21 21 21 21 21 21 21 21 21 21 21 21 21 20 21 21 20 20 20 20 20 20 20 20 20 20 20 19 19 19 19 19 19 19 19 19
24 23 22 22 21 21 21 21 21 21 21 21 21 20 20 21 20 20 20 20 20 20 20 20 20 20 19 19 20 20 20 20 20 19 19 19 19 19 19 19 19 19 19
24 24 23 22 22 22 21 21 21 21 20 20 20 20 20 20 20 20 20 20 19 19 19 19 19 19 19 19 19 19 19 19 19 19 19 19 19 18 18 18 19 19 19
24 23 23 23 22 22 22 21 21 20 20 20 20 20 20 20 20 20 20 20 20 20 19 19 19 19 19 19 19 19 19 19 19 19 19 19 18 17 17 18 19 19 19
24 23 23 23 23 22 22 21 21 20 19 19 20 20 20 20 20 20 19 20 20 20 20 19 19 19 19 19 19 19 19 19 19 19 19 19 18 18 18 18 18 19 19
23 23 23 23 23 22 22 21 21 20 20 20 20 20 20 20 20 19 19 19 19 19 19 19 19 18 19 19 19 19 18 18 19 19 19 18 18 18 18 18 18 18 18
23 23 23 23 23 22 22 22 21 21 20 20 20 20 20 20 19 19 19 19 18 18 18 18 18 18 18 18 18 18 18 18 18 18 18 18 18 18 18 18 18 18 18
23 22 22 23 23 23 22 22 22 21 20 20 20 20 19 19 18 18 18 18 18 18 18 18 18 18 18 18 18 18 18 18 18 18 18 18 18 18 18 18 17 17 17
22 22 22 22 23 23 22 22 21 20 20 20 19 19 19 19 18 18 18 18 18 18 18 18 18 18 18 18 17 17 17 18 18 18 18 18 18 18 18 18 18 17 17
20 20 20 21 21 21 21 21 20 19 19 19 19 19 18 18 18 18 18 18 18 18 18 18 18 18 18 18 17 17 18 18 18 18 18 18 18 18 18 17 18 18 18
18 18 19 19 20 20 20 20 19 19 19 19 18 18 18 18 18 18 17 17 17 17 17 17 17 17 17 17 17 17 17 17 17 17 18 18 18 18 18 18 18 18 18
18 18 18 18 18 19 19 19 19 19 19 18 18 18 18 18 17 17 17 17 17 17 17 17 17 17 17 17 17 17 17 17 17 18 18 18 18 18 18 18 18 18 18
20 18 18 18 18 18 18 18 19 19 18 18 18 18 18 18 17 17 17 17 17 17 17 17 17 17 17 17 16 16 16 17 17 17 18 18 18 18 19 18 18 18 18
20 19 19 17 17 17 18 18 19 19 19 18 18 18 18 18 18 17 17 17 16 16 16 16 16 16 16 16 16 16 16 16 17 17 17 17 17 18 18 18 18 17 17
20 19 19 17 17 17 17 18 19 19 19 18 18 18 18 18 18 17 17 16 16 16 16 16 16 15 15 15 15 15 16 16 16 16 17 17 17 17 17 17 17 17 17
18 18 18 18 17 17 18 18 19 19 19 19 19 19 18 18 17 17 16 16 16 16 16 16 16 16 15 15 15 15 15 16 16 16 16 17 17 17 17 17 16 17 17
18 18 17 17 17 18 18 19 19 19 19 19 19 18 18 18 17 17 16 16 16 16 16 16 16 16 16 15 15 14 15 15 16 16 16 16 17 17 17 17 17 17 17
17 17 17 17 18 18 19 19 19 19 19 19 19 19 18 18 17 17 17 17 17 17 17 17 16 16 16 15 15 14 14 14 14 16 16 16 17 17 17 17 17 17 17
17 17 18 18 18 19 19 19 19 19 19 19 19 19 19 19 18 18 18 17 17 18 18 17 17 16 16 15 15 14 14 14 14 14 16 16 16 16 17 17 17 17 16
17 17 17 17 17 18 18 18 19 19 19 19 19 19 19 19 18 18 18 18 17 17 17 17 17 16 16 15 14 14 14 14 14 14 14 16 16 16 16 16 16 17 17
16 16 16 16 16 16 17 17 17 17 18 18 18 18 18 18 18 18 17 17 17 17 17 17 17 17 16 15 14 14 14 14 14 14 13 14 15 16 16 16 16 16 17
Wind_Speed
11 13 21 22 23 21 19 19 18 16 15 15 15 14 14 14 14 13 13 14 14 13 12 13 14 14 14 14 14 14 14 13 13 13 14 14 14 14 13 14 15 13 15
17 18 22 23 25 23 21 20 19 18 16 15 14 14 14 14 13 13 13 13 13 13 12 12 13 13 13 13 13 13 13 13 12 12 12 12 12 11 9 10 13 12 14
21 19 22 24 25 25 23 21 20 19 18 16 15 14 14 14 14 13 13 13 14 13 12 10 11 11 11 11 11 11 10 10 11 11 10 9 9 9 10 13 15 14 14
20 18 21 25 26 25 24 23 22 21 19 18 17 16 15 14 14 13 13 13 13 13 12 11 10 10 10 9 9 9 10 9 9 9 9 9 8 9 12 14 14 14 14
15 15 21 26 26 26 25 24 23 22 21 20 19 18 17 16 15 14 13 13 13 13 13 12 12 11 11 10 9 8 9 10 8 8 7 9 8 11 12 13 14 14 14
15 15 21 25 25 25 24 23 23 22 21 20 20 19 18 17 16 15 15 14 13 13 13 12 12 11 11 11 10 9 8 8 8 6 6 8 10 15 15 14 13 14 14
16 14 20 24 24 24 23 23 22 22 22 21 19 18 17 17 16 15 14 13 12 12 12 11 11 11 11 11 11 10 10 9 8 7 6 7 12 18 17 16 15 14 13
18 14 18 24 24 24 24 24 23 22 22 21 20 19 18 17 16 15 14 13 13 12 12 13 13 13 15 14 14 13 12 11 9 9 9 9 15 19 19 18 17 16 15
17 14 13 19 23 25 25 25 24 23 22 21 20 19 18 17 17 16 15 15 15 15 14 14 14 13 13 15 16 16 15 14 11 8 9 10 16 21 21 19 18 18 18
17 16 14 13 15 16 19 22 21 20 19 19 19 18 17 17 16 16 16 16 17 17 16 16 16 16 15 16 16 16 16 15 12 11 10 10 15 23 23 21 20 19 19
17 16 14 12 10 12 13 16 18 18 18 18 18 19 17 14 13 14 16 18 18 19 19 19 19 18 17 17 17 17 16 12 11 11 12 14 14 20 24 24 24 23 22
20 18 15 14 11 9 12 11 11 13 13 15 13 14 13 11 12 13 15 20 20 20 20 19 19 18 17 13 16 18 13 13 12 12 14 17 17 19 24 26 26 25 25
17 16 15 14 12 10 7 7 7 8 8 10 11 12 10 9 10 11 9 12 16 18 14 15 16 15 14 12 11 12 14 13 12 14 16 19 19 19 23 27 28 27 26
12 12 12 12 12 12 7 5 5 4 4 6 11 13 9 5 6 6 5 6 7 9 8 7 5 8 12 15 14 10 10 10 12 14 16 21 20 22 24 27 29 28 26
4 1 4 7 9 8 6 4 5 5 5 8 10 13 12 7 6 5 4 4 5 5 3 3 4 4 3 2 5 5 5 6 8 11 14 20 23 23 23 26 28 28 27
18 14 11 7 6 4 4 5 6 5 5 6 8 11 13 7 5 5 4 4 3 4 4 4 5 4 4 3 4 5 5 6 8 10 12 15 19 20 22 25 28 29 28
14 15 15 13 8 1 2 5 5 4 4 3 4 8 9 8 5 5 4 3 3 4 4 3 3 3 3 3 4 5 5 6 7 9 11 13 14 16 19 23 25 27 28
11 5 9 13 10 5 4 5 4 3 3 4 5 6 7 7 6 4 3 2 2 2 2 2 2 2 2 2 3 4 5 6 7 8 9 11 12 13 15 19 23 26 28
15 11 4 2 4 6 8 8 5 3 4 3 4 4 6 7 6 4 4 3 2 2 1 1 1 2 2 3 4 5 6 7 8 9 9 10 12 13 13 16 20 25 28
12 13 11 8 6 10 11 7 4 3 3 3 4 5 7 6 7 5 4 3 2 1 1 1 0 1 2 3 4 4 5 7 7 8 10 9 10 14 14 15 16 18 25
8 8 9 11 12 12 8 5 4 4 4 3 4 6 7 7 7 5 4 3 3 3 3 2 2 1 1 1 1 3 5 6 7 7 7 7 10 11 12 13 13 14 15
8 6 4 4 6 6 5 4 4 3 3 3 3 5 7 7 6 6 6 5 4 3 1 1 1 1 0 1 2 1 4 5 4 4 4 5 7 6 8 9 11 12 13
11 9 7 7 5 4 4 3 2 1 0 1 3 4 6 6 6 6 7 6 5 4 2 1 0 1 1 0 2 2 1 3 4 4 4 5 5 4 5 6 7 10 12
10 8 8 7 7 7 6 5 4 1 3 4 4 5 6 7 7 7 8 8 6 4 4 2 2 2 2 1 1 2 3 4 2 4 5 4 6 6 6 5 7 7 11
6 6 5 6 6 6 6 5 5 4 3 3 3 3 4 5 6 7 8 8 7 5 5 4 3 3 2 3 3 3 3 3 4 3 5 5 6 5 6 7 6 7 8
4 4 4 5 4 5 6 7 7 7 7 7 6 5 3 3 3 4 6 7 7 6 6 5 5 4 3 4 4 4 4 3 3 3 4 5 6 5 6 5 5 6 6
Wind_Direction
157 165 159 158 158 155 150 142 139 136 131 126 123 121 120 119 119 120 124 128 131 127 127 127 123 123 126 124 122 123 122 120 119 120 120 118 118 122 124 118 114 111 109
156 163 160 160 159 158 156 149 145 143 140 138 137 135 132 130 127 124 126 131 136 134 126 125 126 123 127 130 127 126 126 126 128 126 122 120 121 121 123 130 127 124 120
152 161 160 160 160 161 160 154 150 149 148 149 149 147 143 142 139 137 135 134 137 139 135 132 131 133 133 136 136 132 131 129 132 135 128 125 130 126 121 131 135 133 130
151 157 159 160 161 163 163 159 157 156 156 158 158 157 154 152 149 148 147 146 145 146 148 150 150 148 148 148 148 147 148 148 150 153 152 159 160 148 136 138 143 143 140
148 156 161 161 164 166 166 164 163 163 164 165 165 164 163 162 160 158 159 160 159 159 161 163 164 164 165 166 166 165 162 165 174 179 174 174 180 169 158 152 153 152 151
154 160 164 164 167 169 169 169 169 169 170 171 171 171 170 171 173 171 171 172 173 171 170 172 174 175 178 179 180 184 186 186 192 206 212 205 193 184 173 166 165 164 164
158 165 167 166 168 170 172 174 176 176 176 176 176 177 178 181 183 182 181 183 185 185 183 185 190 191 192 195 195 198 204 209 209 217 228 230 198 189 181 177 176 176 176
161 167 170 169 170 172 176 180 182 183 183 182 182 183 185 187 189 190 191 193 196 199 200 202 206 208 206 206 207 208 212 220 224 222 225 221 206 197 188 186 182 178 177
162 169 175 176 176 178 181 184 186 187 187 187 188 190 192 193 195 198 200 201 203 209 212 214 216 216 211 211 214 215 217 224 233 236 238 219 208 202 193 193 190 186 184
166 173 179 181 180 180 183 188 189 190 191 191 194 197 199 202 203 205 208 211 213 214 218 221 223 222 220 218 221 223 224 228 234 241 249 242 218 206 200 196 198 198 196
173 177 177 179 180 180 184 194 194 196 197 198 201 204 205 208 211 214 217 220 224 224 225 226 226 226 226 228 230 231 231 231 230 235 244 251 247 220 209 203 202 203 204
178 179 178 181 183 180 189 191 194 198 201 203 206 210 208 204 211 221 225 229 231 233 234 236 234 232 231 230 234 236 233 229 229 233 239 248 255 241 220 213 209 207 207
178 176 179 179 180 183 193 185 191 198 202 208 211 213 208 204 215 227 228 239 238 238 237 241 238 231 228 222 224 228 229 229 229 231 235 243 250 247 230 219 216 215 214
172 180 179 179 182 190 195 180 177 183 193 205 214 213 206 208 217 220 222 235 234 228 225 228 225 230 232 231 229 228 230 229 229 230 233 239 247 249 240 225 220 221 221
36 27 199 198 195 195 196 174 172 188 197 208 213 214 210 212 220 221 224 224 222 212 200 200 202 222 246 241 233 228 229 233 238 233 238 247 254 254 246 233 225 223 222
24 10 357 317 262 213 182 174 181 191 200 208 219 217 208 201 206 221 227 213 197 178 179 179 186 198 213 204 196 197 216 233 241 243 244 253 261 262 253 242 234 229 226
34 2 350 326 304 290 180 185 183 190 187 199 213 205 191 185 191 201 203 202 193 181 181 179 188 188 205 211 218 221 229 238 245 244 246 249 255 260 257 247 238 232 231
86 1 330 324 323 333 306 267 224 194 195 204 204 196 193 190 182 169 180 217 210 187 186 193 197 203 223 217 228 235 238 247 255 257 258 255 253 256 255 249 241 236 235
140 165 172 281 333 311 284 274 266 238 224 222 204 187 189 193 191 176 195 217 223 210 223 246 237 211 247 254 242 237 237 241 248 253 252 253 252 250 251 254 249 243 241
150 154 151 152 195 236 246 255 257 231 223 208 189 185 182 193 198 189 201 199 167 141 82 68 229 214 233 255 270 269 258 249 246 242 243 247 248 247 243 242 245 249 248
118 126 146 170 197 218 225 219 203 209 217 200 191 186 181 186 185 184 192 170 137 135 149 141 132 119 241 218 302 311 295 269 255 253 244 240 244 245 241 237 235 237 246
75 82 105 177 215 238 243 227 202 197 212 216 203 198 196 188 182 180 178 175 164 155 148 89 111 119 194 120 122 356 327 326 322 293 284 263 258 250 242 235 231 227 230
47 47 51 45 37 7 337 323 347 58 72 195 214 215 214 197 185 174 178 173 177 170 177 193 228 165 200 324 139 157 205 276 305 299 299 302 311 291 255 240 227 222 221
50 50 46 41 28 12 12 25 23 324 250 236 230 224 216 201 191 183 182 180 180 172 178 201 218 199 181 235 281 204 197 198 248 304 305 303 315 310 296 268 244 231 224
46 48 46 45 30 12 17 23 35 20 324 312 311 276 246 226 211 200 192 186 180 177 183 188 194 208 198 205 218 229 227 219 208 229 292 312 320 301 296 280 257 243 230
31 25 28 36 29 17 25 25 33 29 16 15 13 1 341 315 294 260 222 197 185 178 183 194 198 204 220 231 231 223 217 218 209 215 262 296 301 296 300 287 273 258 242
Height
1512 1514 1517 1518 1519 1520 1521 1523 1525 1526 1528 1529 1530 1532 1533 1534 1535 1536 1537 1538 1539 1539 1539 1539 1539 1540 1541 1543 1543 1544 1545 1546 1547 1547 1548 1549 1550 1550 1550 1550 1551 1552 1553
1509 1512 1515 1517 1518 1519 1520 1522 1524 1525 1527 1528 1530 1531 1533 1535 1536 1537 1538 1539 1540 1541 1541 1541 1541 1542 1542 1543 1544 1545 1546 1547 1547 1548 1550 1550 1551 1551 1551 1551 1552 1552 1554
1506 1509 1512 1514 1516 1517 1519 1520 1522 1524 1525 1527 1529 1530 1532 1534 1536 1537 1538 1539 1540 1541 1542 1543 1543 1544 1544 1544 1545 1546 1547 1548 1548 1549 1550 1551 1552 1552 1552 1552 1553 1553 1554
1504 1506 1509 1512 1513 1515 1516 1518 1520 1522 1523 1525 1527 1529 1531 1534 1535 1537 1538 1539 1540 1541 1542 1543 1544 1545 1545 1546 1546 1546 1547 1548 1549 1550 1551 1551 1552 1553 1553 1553 1553 1554 1555
1503 1505 1508 1510 1512 1513 1515 1516 1517 1519 1521 1523 1525 1527 1530 1532 1534 1536 1537 1538 1539 1540 1541 1542 1544 1545 1546 1546 1546 1547 1547 1548 1549 1549 1550 1550 1552 1553 1554 1554 1554 1554 1555
1502 1504 1507 1510 1512 1513 1515 1516 1517 1518 1520 1521 1523 1525 1527 1530 1532 1534 1535 1537 1538 1539 1540 1541 1543 1544 1545 1545 1545 1546 1546 1547 1547 1548 1549 1549 1550 1552 1553 1554 1554 1554 1555
1502 1504 1506 1509 1511 1513 1515 1516 1517 1517 1518 1519 1521 1522 1524 1527 1529 1531 1533 1535 1537 1538 1539 1540 1541 1542 1543 1544 1544 1544 1545 1545 1546 1547 1547 1548 1549 1551 1552 1554 1554 1554 1554
1502 1504 1506 1508 1510 1512 1513 1515 1516 1517 1518 1518 1519 1520 1521 1523 1525 1527 1529 1532 1534 1536 1538 1539 1540 1540 1541 1542 1543 1543 1543 1544 1544 1545 1545 1546 1547 1549 1550 1552 1553 1554 1554
1504 1504 1505 1506 1507 1508 1510 1512 1514 1516 1517 1519 1519 1520 1521 1522 1524 1526 1527 1528 1530 1533 1535 1537 1538 1538 1539 1540 1541 1542 1542 1542 1542 1543 1544 1543 1544 1546 1548 1550 1551 1552 1553
1502 1503 1503 1504 1505 1507 1509 1511 1514 1516 1518 1519 1520 1520 1521 1522 1523 1524 1526 1527 1528 1529 1531 1534 1536 1536 1537 1538 1539 1540 1540 1540 1540 1541 1541 1542 1542 1543 1545 1547 1549 1550 1552
1498 1500 1502 1504 1505 1507 1509 1511 1513 1515 1517 1518 1519 1519 1520 1521 1522 1523 1524 1525 1526 1527 1528 1530 1533 1534 1535 1536 1536 1537 1538 1538 1538 1539 1539 1540 1541 1541 1542 1544 1545 1547 1549
1493 1496 1500 1503 1505 1508 1509 1510 1512 1513 1515 1517 1518 1519 1520 1521 1522 1522 1522 1523 1523 1524 1525 1526 1529 1530 1532 1532 1533 1534 1534 1535 1535 1536 1537 1538 1538 1539 1539 1540 1542 1544 1545
1493 1497 1500 1503 1505 1507 1509 1510 1511 1513 1514 1516 1517 1518 1518 1519 1520 1520 1520 1521 1521 1521 1521 1523 1525 1526 1528 1529 1530 1530 1531 1531 1532 1533 1533 1535 1536 1536 1536 1536 1538 1540 1542
1498 1502 1504 1504 1505 1507 1509 1510 1511 1513 1514 1515 1515 1516 1516 1516 1517 1518 1517 1518 1518 1518 1518 1519 1521 1522 1524 1525 1527 1527 1527 1527 1528 1529 1530 1530 1530 1531 1531 1532 1534 1536 1537
1512 1513 1513 1511 1509 1509 1510 1511 1513 1513 1513 1513 1513 1513 1513 1513 1514 1514 1513 1513 1514 1514 1515 1516 1517 1520 1521 1522 1523 1524 1524 1524 1525 1525 1525 1525 1526 1526 1527 1528 1529 1531 1532
1511 1514 1517 1517 1515 1512 1511 1511 1511 1511 1511 1510 1510 1510 1510 1510 1510 1510 1510 1510 1511 1510 1510 1511 1513 1515 1516 1517 1518 1519 1520 1521 1521 1521 1520 1520 1520 1521 1522 1523 1524 1526 1527
1506 1507 1513 1514 1512 1512 1511 1511 1510 1509 1509 1509 1509 1508 1508 1507 1508 1508 1507 1507 1507 1506 1507 1508 1509 1510 1511 1513 1513 1514 1515 1516 1517 1517 1516 1515 1515 1516 1517 1517 1518 1519 1521
1502 1505 1508 1508 1506 1507 1510 1510 1509 1508 1508 1508 1507 1506 1506 1506 1505 1505 1505 1504 1503 1503 1503 1504 1505 1506 1507 1508 1509 1510 1512 1513 1513 1512 1512 1511 1511 1511 1511 1512 1513 1514 1515
1496 1499 1502 1503 1502 1505 1507 1509 1508 1508 1507 1507 1506 1505 1504 1504 1504 1503 1502 1502 1501 1500 1500 1501 1501 1502 1503 1504 1505 1506 1507 1508 1508 1507 1507 1506 1506 1506 1506 1506 1507 1508 1509
1492 1492 1494 1498 1501 1502 1505 1508 1507 1506 1505 1504 1503 1502 1502 1502 1501 1501 1500 1499 1498 1498 1498 1498 1499 1499 1500 1501 1502 1503 1503 1503 1503 1502 1502 1502 1501 1500 1500 1501 1501 1501 1503
1493 1493 1494 1497 1498 1499 1503 1504 1503 1502 1502 1502 1501 1501 1500 1499 1498 1498 1498 1496 1495 1495 1496 1496 1496 1496 1497 1498 1499 1498 1499 1499 1498 1498 1498 1497 1496 1495 1495 1495 1495 1496 1497
1496 1497 1497 1499 1500 1501 1502 1502 1500 1499 1499 1500 1499 1500 1499 1498 1497 1495 1494 1494 1493 1493 1493 1493 1493 1493 1493 1495 1495 1495 1495 1495 1494 1494 1493 1493 1492 1492 1491 1490 1491 1491 1492
1498 1498 1498 1499 1499 1499 1499 1499 1498 1496 1495 1496 1496 1497 1497 1497 1495 1493 1492 1491 1491 1491 1490 1490 1491 1491 1491 1493 1493 1493 1493 1492 1490 1488 1489 1488 1488 1488 1487 1487 1487 1487 1487
1499 1499 1499 1498 1498 1498 1497 1496 1494 1493 1492 1492 1493 1493 1494 1493 1492 1491 1490 1489 1488 1488 1488 1488 1488 1489 1489 1490 1490 1490 1490 1490 1489 1485 1484 1484 1483 1483 1483 1483 1483 1483 1482
1501 1500 1499 1498 1497 1496 1495 1493 1491 1490 1489 1488 1488 1489 1489 1489 1489 1488 1487 1487 1486 1486 1486 1486 1486 1486 1487 1488 1488 1487 1486 1486 1486 1485 1480 1478 1478 1478 1478 1478 1478 1478 1478
1503 1502 1500 1497 1495 1493 1491 1489 1487 1486 1485 1484 1483 1483 1483 1483 1483 1483 1483 1483 1482 1482 1483 1484 1484 1483 1484 1484 1484 1484 1483 1482 1481 1480 1478 1475 1473 1473 1473 1474 1474 1474 1473